TimeCDT,TemperatureF,Dew PointF,Humidity,Sea Level PressureIn,VisibilityMPH,Wind Direction,Wind SpeedMPH,Gust SpeedMPH,PrecipitationIn,Events,Conditions,WindDirDegrees,DateUTC
12:53 AM,48.0,37.0,66,29.98,10.0,Calm,Calm,-,N/A,,Mostly Cloudy,0,2012-11-02 05:53:00
1:53 AM,46.0,36.0,68,29.98,10.0,East,3.5,-,N/A,,Partly Cloudy,90,2012-11-02 06:53:00
2:53 AM,44.1,36.0,73,29.98,10.0,East,3.5,-,N/A,,Partly Cloudy,100,2012-11-02 07:53:00
3:53 AM,43.0,35.1,74,29.97,10.0,East,4.6,-,N/A,,Partly Cloudy,80,2012-11-02 08:53:00
4:53 AM,42.1,35.1,76,29.98,10.0,East,3.5,-,N/A,,Partly Cloudy,90,2012-11-02 09:53:00
5:53 AM,41.0,35.1,79,29.99,10.0,East,3.5,-,N/A,,Partly Cloudy,90,2012-11-02 10:53:00
6:53 AM,41.0,35.1,79,29.99,10.0,Calm,Calm,-,N/A,,Partly Cloudy,0,2012-11-02 11:53:00
7:53 AM,44.1,37.9,79,30.00,10.0,East,3.5,-,N/A,,Partly Cloudy,100,2012-11-02 12:53:00
8:53 AM,53.1,42.1,66,30.02,10.0,Calm,Calm,-,N/A,,Partly Cloudy,0,2012-11-02 13:53:00
9:53 AM,61.0,43.0,52,30.02,10.0,West,5.8,-,N/A,,Scattered Clouds,260,2012-11-02 14:53:00
10:53 AM,66.0,45.0,47,30.01,10.0,West,9.2,-,N/A,,Scattered Clouds,270,2012-11-02 15:53:00
11:53 AM,70.0,46.9,44,30.00,10.0,WNW,10.4,-,N/A,,Scattered Clouds,290,2012-11-02 16:53:00
12:53 PM,73.0,46.0,38,29.98,10.0,West,8.1,-,N/A,,Scattered Clouds,280,2012-11-02 17:53:00
1:53 PM,73.9,46.0,37,29.96,10.0,WSW,9.2,-,N/A,,Partly Cloudy,240,2012-11-02 18:53:00
2:53 PM,75.0,46.0,36,29.96,10.0,Variable,6.9,-,N/A,,Partly Cloudy,0,2012-11-02 19:53:00
3:53 PM,75.0,45.0,34,29.95,10.0,West,5.8,-,N/A,,Partly Cloudy,270,2012-11-02 20:53:00
4:53 PM,73.9,44.1,34,29.96,10.0,West,8.1,-,N/A,,Scattered Clouds,270,2012-11-02 21:53:00
5:53 PM,68.0,43.0,40,29.98,10.0,West,4.6,-,N/A,,Scattered Clouds,280,2012-11-02 22:53:00
6:53 PM,63.0,42.1,46,30.00,10.0,NNW,3.5,-,N/A,,Scattered Clouds,330,2012-11-02 23:53:00
7:53 PM,61.0,42.1,50,30.01,10.0,West,3.5,-,N/A,,Scattered Clouds,260,2012-11-03 00:53:00
8:53 PM,55.9,42.1,60,30.01,10.0,Calm,Calm,-,N/A,,Scattered Clouds,0,2012-11-03 01:53:00
9:53 PM,54.0,41.0,62,30.02,10.0,NNW,3.5,-,N/A,,Partly Cloudy,330,2012-11-03 02:53:00
10:53 PM,51.1,39.9,66,30.02,10.0,Calm,Calm,-,N/A,,Partly Cloudy,0,2012-11-03 03:53:00
11:53 PM,46.9,41.0,80,30.03,10.0,Calm,Calm,-,N/A,,Partly Cloudy,0,2012-11-03 04:53:00